Location: Burla
(50.9568°N, 10.4983°E)
Time: 21:18:15
(UTC+00:00)

COSMO-SKYMED 1 - Pass Details

Date: 18 January 2026
Orbit: 577 x 579 km, 97.9° (Epoch: 17 February)

Event Time Altitude Azimuth Distance (km) Brightness Sun altitude
Rises 05:58:30 0° 210° (SSW) 2,790 5.8 -11.2°
Reaches altitude 10° 06:01:25 10° 233° (SW) 1,897 4.7 -10.8°
Maximum altitude 06:03:55 16° 271° (W) 1,572 4.1 -10.4°
Enters shadow 06:05:01 14° 289° (WNW) 1,644 4.1 -10.3°
